Location: Avully
(45.9633°N, 6.0228°E)
Time: 05:34:33
(UTC+00:00)

Cosmos 2360 Rocket - Pass Details

Date: 13 August 2024
Orbit: 834 x 843 km, 71.0° (Epoch: 16 September)

Event Time Altitude Azimuth Distance (km) Brightness Sun altitude
Exits shadow 00:23:44 64° 299° (WNW) 931 2.3 -28.7°
Maximum altitude 00:23:45 64° 299° (WNW) 931 2.3 -28.7°
Drops below altitude 10° 00:29:23 10° 21° (NNE) 2,468 5.6 -28.5°
Sets 00:31:52 0° 25° (NNE) 3,406 6.5 -28.4°
